Time,TemperatureF,DewpointF,PressureIn,WindDirection,WindDirectionDegrees,WindSpeedMPH,WindSpeedGustMPH,Humidity,HourlyPrecipIn,Conditions,Clouds,dailyrainin,SoftwareType,DateUTC
2013-08-08 00:02:00,82.5,76.1,29.86,ESE,105,3.0,7.0,81,0.00,,---,0.00,VWS V13.01,2013-08-08 05:02:00,
2013-08-08 00:07:00,82.4,76.0,29.86,East,101,3.0,7.0,81,0.00,,---,0.00,VWS V13.01,2013-08-08 05:07:00,
2013-08-08 00:12:00,82.4,76.0,29.86,East,101,2.0,6.0,81,0.00,,---,0.00,VWS V13.01,2013-08-08 05:12:00,
2013-08-08 00:17:00,82.3,75.9,29.85,ESE,102,6.0,6.0,81,0.00,,---,0.00,VWS V13.01,2013-08-08 05:17:00,
2013-08-08 00:22:00,82.2,75.8,29.85,East,90,3.0,9.0,81,0.00,,---,0.00,VWS V13.01,2013-08-08 05:22:00,
2013-08-08 00:27:00,82.1,76.1,29.86,ESE,103,0.0,9.0,82,0.00,,---,0.00,VWS V13.01,2013-08-08 05:27:00,
2013-08-08 00:32:00,82.1,76.1,29.85,East,90,6.0,10.0,82,0.00,,---,0.00,VWS V13.01,2013-08-08 05:32:00,
2013-08-08 00:37:00,82.0,76.0,29.85,East,97,2.0,10.0,82,0.00,,---,0.00,VWS V13.01,2013-08-08 05:37:00,
2013-08-08 00:42:00,82.0,76.0,29.85,ESE,119,3.0,7.0,82,0.00,,---,0.00,VWS V13.01,2013-08-08 05:42:00,
2013-08-08 00:47:00,81.9,75.9,29.85,East,101,4.0,7.0,82,0.00,,---,0.00,VWS V13.01,2013-08-08 05:47:00,
2013-08-08 00:52:00,82.0,76.3,29.85,East,95,5.0,7.0,83,0.00,,---,0.00,VWS V13.01,2013-08-08 05:52:00,
2013-08-08 00:57:00,82.0,76.3,29.85,East,92,2.0,10.0,83,0.00,,---,0.00,VWS V13.01,2013-08-08 05:57:00,
2013-08-08 01:01:00,82.0,76.3,29.86,East,95,6.0,10.0,83,0.00,,---,0.00,VWS V13.01,2013-08-08 06:01:00,
2013-08-08 01:06:00,82.0,76.3,29.85,ESE,113,0.0,10.0,83,0.00,,---,0.00,VWS V13.01,2013-08-08 06:06:00,
2013-08-08 01:11:00,82.0,76.3,29.85,ESE,115,2.0,9.0,83,0.00,,---,0.00,VWS V13.01,2013-08-08 06:11:00,
2013-08-08 01:16:00,81.9,76.2,29.84,ESE,111,5.0,9.0,83,0.00,,---,0.00,VWS V13.01,2013-08-08 06:16:00,
2013-08-08 01:21:00,81.9,76.2,29.84,ENE,62,3.0,9.0,83,0.00,,---,0.00,VWS V13.01,2013-08-08 06:21:00,
2013-08-08 01:26:00,81.8,76.1,29.84,East,86,3.0,9.0,83,0.00,,---,0.00,VWS V13.01,2013-08-08 06:26:00,
2013-08-08 01:31:00,81.7,76.0,29.84,East,90,3.0,9.0,83,0.00,,---,0.00,VWS V13.01,2013-08-08 06:31:00,
2013-08-08 01:36:00,81.6,75.9,29.84,East,95,7.0,11.0,83,0.00,,---,0.00,VWS V13.01,2013-08-08 06:36:00,
2013-08-08 01:41:00,81.5,75.8,29.83,East,99,0.0,5.0,83,0.00,,---,0.00,VWS V13.01,2013-08-08 06:41:00,
2013-08-08 01:46:00,81.4,75.7,29.83,ESE,119,3.0,10.0,83,0.00,,---,0.00,VWS V13.01,2013-08-08 06:46:00,
2013-08-08 01:51:00,81.4,75.7,29.83,SE,144,3.0,10.0,83,0.00,,---,0.00,VWS V13.01,2013-08-08 06:51:00,
2013-08-08 01:57:00,81.4,76.1,29.83,SE,137,3.0,11.0,84,0.00,,---,0.00,VWS V13.01,2013-08-08 06:57:00,
2013-08-08 02:02:00,81.3,76.0,29.83,SE,146,0.0,11.0,84,0.00,,---,0.00,VWS V13.01,2013-08-08 07:02:00,
2013-08-08 02:07:00,81.2,75.9,29.83,SE,126,2.0,11.0,84,0.00,,---,0.00,VWS V13.01,2013-08-08 07:07:00,
2013-08-08 02:12:00,81.1,75.8,29.83,ESE,113,0.0,9.0,84,0.00,,---,0.00,VWS V13.01,2013-08-08 07:12:00,
2013-08-08 02:17:00,81.0,75.7,29.82,East,94,3.0,9.0,84,0.00,,---,0.00,VWS V13.01,2013-08-08 07:17:00,
2013-08-08 02:22:00,80.9,75.6,29.83,East,94,4.0,9.0,84,0.00,,---,0.00,VWS V13.01,2013-08-08 07:22:00,
2013-08-08 02:27:00,80.7,75.8,29.82,ESE,114,2.0,9.0,85,0.00,,---,0.00,VWS V13.01,2013-08-08 07:27:00,
2013-08-08 02:32:00,80.6,75.7,29.82,ESE,118,2.0,9.0,85,0.00,,---,0.00,VWS V13.01,2013-08-08 07:32:00,
2013-08-08 02:37:00,80.4,75.5,29.82,East,92,0.0,2.0,85,0.00,,---,0.00,VWS V13.01,2013-08-08 07:37:00,
2013-08-08 02:42:00,80.3,75.4,29.82,East,82,4.0,7.0,85,0.00,,---,0.00,VWS V13.01,2013-08-08 07:42:00,
2013-08-08 02:47:00,80.2,75.6,29.82,ESE,118,2.0,7.0,86,0.00,,---,0.00,VWS V13.01,2013-08-08 07:47:00,
2013-08-08 02:52:00,80.1,75.5,29.82,ESE,110,3.0,7.0,86,0.00,,---,0.00,VWS V13.01,2013-08-08 07:52:00,
2013-08-08 02:57:00,80.0,75.4,29.82,ESE,110,0.0,7.0,86,0.00,,---,0.00,VWS V13.01,2013-08-08 07:57:00,
2013-08-08 03:02:00,80.0,75.4,29.82,ESE,111,6.0,7.0,86,0.00,,---,0.00,VWS V13.01,2013-08-08 08:02:00,
2013-08-08 03:07:00,80.0,75.8,29.81,ESE,111,1.0,2.0,87,0.00,,---,0.00,VWS V13.01,2013-08-08 08:07:00,
2013-08-08 03:12:00,80.0,75.8,29.82,ESE,111,0.0,3.0,87,0.00,,---,0.00,VWS V13.01,2013-08-08 08:12:00,
2013-08-08 03:17:00,80.0,75.8,29.82,ESE,111,3.0,5.0,87,0.00,,---,0.00,VWS V13.01,2013-08-08 08:17:00,
2013-08-08 03:22:00,79.9,75.7,29.82,ESE,109,4.0,7.0,87,0.00,,---,0.00,VWS V13.01,2013-08-08 08:22:00,
2013-08-08 03:27:00,79.8,75.6,29.82,ESE,109,2.0,7.0,87,0.00,,---,0.00,VWS V13.01,2013-08-08 08:27:00,
2013-08-08 03:32:00,79.7,75.5,29.82,ESE,104,4.0,7.0,87,0.00,,---,0.00,VWS V13.01,2013-08-08 08:32:00,
2013-08-08 03:37:00,79.6,75.4,29.82,ESE,104,3.0,4.0,87,0.00,,---,0.00,VWS V13.01,2013-08-08 08:37:00,
2013-08-08 03:42:00,79.6,75.4,29.82,ESE,108,2.0,6.0,87,0.00,,---,0.00,VWS V13.01,2013-08-08 08:42:00,
2013-08-08 03:47:00,79.5,75.6,29.82,ESE,107,4.0,6.0,88,0.00,,---,0.00,VWS V13.01,2013-08-08 08:47:00,
2013-08-08 03:52:00,79.5,75.6,29.83,ESE,105,3.0,7.0,88,0.00,,---,0.00,VWS V13.01,2013-08-08 08:52:00,
2013-08-08 03:57:00,79.5,75.6,29.83,ESE,105,3.0,7.0,88,0.00,,---,0.00,VWS V13.01,2013-08-08 08:57:00,
2013-08-08 04:02:00,79.5,75.6,29.83,ESE,107,4.0,7.0,88,0.00,,---,0.00,VWS V13.01,2013-08-08 09:02:00,
2013-08-08 04:07:00,79.5,75.6,29.83,ESE,107,2.0,2.0,88,0.00,,---,0.00,VWS V13.01,2013-08-08 09:07:00,
2013-08-08 04:12:00,79.6,76.1,29.83,ESE,108,5.0,7.0,89,0.00,,---,0.00,VWS V13.01,2013-08-08 09:12:00,
2013-08-08 04:17:00,79.6,75.7,29.83,East,101,5.0,7.0,88,0.00,,---,0.00,VWS V13.01,2013-08-08 09:17:00,
2013-08-08 04:22:00,79.6,75.7,29.82,SSE,157,6.0,10.0,88,0.00,,---,0.00,VWS V13.01,2013-08-08 09:22:00,
2013-08-08 04:27:00,79.5,75.6,29.82,ESE,110,1.0,10.0,88,0.00,,---,0.00,VWS V13.01,2013-08-08 09:27:00,
2013-08-08 04:32:00,79.4,75.5,29.82,East,92,4.0,10.0,88,0.00,,---,0.00,VWS V13.01,2013-08-08 09:32:00,
2013-08-08 04:37:00,79.3,75.4,29.82,East,92,4.0,4.0,88,0.00,,---,0.00,VWS V13.01,2013-08-08 09:37:00,
2013-08-08 04:42:00,79.2,75.3,29.82,East,92,2.0,8.0,88,0.00,,---,0.00,VWS V13.01,2013-08-08 09:42:00,
2013-08-08 04:47:00,79.1,75.2,29.82,East,90,6.0,8.0,88,0.00,,---,0.00,VWS V13.01,2013-08-08 09:47:00,
2013-08-08 04:52:00,79.0,75.2,29.82,ESE,113,4.0,10.0,88,0.00,,---,0.00,VWS V13.01,2013-08-08 09:52:00,
2013-08-08 04:57:00,78.9,75.1,29.82,ESE,121,6.0,10.0,88,0.00,,---,0.00,VWS V13.01,2013-08-08 09:57:00,
2013-08-08 05:02:00,78.8,74.9,29.83,East,89,2.0,11.0,88,0.00,,---,0.00,VWS V13.01,2013-08-08 10:02:00,
2013-08-08 05:07:00,78.7,74.8,29.82,ENE,71,4.0,6.0,88,0.00,,---,0.00,VWS V13.01,2013-08-08 10:07:00,
2013-08-08 05:12:00,78.7,74.8,29.82,ESE,103,5.0,12.0,88,0.00,,---,0.00,VWS V13.01,2013-08-08 10:12:00,
2013-08-08 05:17:00,78.7,74.8,29.82,ESE,103,1.0,12.0,88,0.00,,---,0.00,VWS V13.01,2013-08-08 10:17:00,
2013-08-08 05:22:00,78.7,74.8,29.82,East,95,2.0,12.0,88,0.00,,---,0.00,VWS V13.01,2013-08-08 10:22:00,
2013-08-08 05:27:00,78.7,74.8,29.81,SE,130,3.0,12.0,88,0.00,,---,0.00,VWS V13.01,2013-08-08 10:27:00,
2013-08-08 05:32:00,78.7,74.8,29.81,SE,141,7.0,12.0,88,0.00,,---,0.00,VWS V13.01,2013-08-08 10:32:00,
2013-08-08 05:37:00,78.6,74.8,29.81,SE,138,8.0,8.0,88,0.00,,---,0.00,VWS V13.01,2013-08-08 10:37:00,
2013-08-08 05:42:00,78.5,74.7,29.81,East,98,5.0,11.0,88,0.00,,---,0.00,VWS V13.01,2013-08-08 10:42:00,
2013-08-08 05:47:00,78.4,74.9,29.82,East,97,4.0,11.0,89,0.00,,---,0.00,VWS V13.01,2013-08-08 10:47:00,
2013-08-08 05:52:00,78.2,74.7,29.82,East,95,4.0,11.0,89,0.00,,---,0.00,VWS V13.01,2013-08-08 10:52:00,
2013-08-08 05:57:00,78.2,74.7,29.82,ESE,105,3.0,11.0,89,0.00,,---,0.00,VWS V13.01,2013-08-08 10:57:00,
2013-08-08 06:02:00,78.1,74.6,29.82,SE,127,0.0,11.0,89,0.00,,---,0.00,VWS V13.01,2013-08-08 11:02:00,
2013-08-08 06:07:00,78.1,74.6,29.82,SE,136,2.0,3.0,89,0.00,,---,0.00,VWS V13.01,2013-08-08 11:07:00,
2013-08-08 06:12:00,78.0,74.5,29.83,SE,136,1.0,5.0,89,0.00,,---,0.00,VWS V13.01,2013-08-08 11:12:00,
2013-08-08 06:17:00,78.0,74.5,29.84,SE,136,0.0,5.0,89,0.00,,---,0.00,VWS V13.01,2013-08-08 11:17:00,
2013-08-08 06:22:00,78.0,74.5,29.85,SE,136,0.0,5.0,89,0.00,,---,0.00,VWS V13.01,2013-08-08 11:22:00,
2013-08-08 06:27:00,78.0,74.5,29.86,SE,136,0.0,5.0,89,0.00,,---,0.00,VWS V13.01,2013-08-08 11:27:00,
2013-08-08 06:32:00,78.0,74.5,29.87,SE,136,0.0,5.0,89,0.00,,---,0.00,VWS V13.01,2013-08-08 11:32:00,
2013-08-08 06:38:00,78.0,74.5,29.87,SE,136,0.0,0.0,89,0.00,,---,0.00,VWS V13.01,2013-08-08 11:38:00,
2013-08-08 06:43:00,78.1,74.6,29.88,SE,136,0.0,0.0,89,0.00,,---,0.00,VWS V13.01,2013-08-08 11:43:00,
2013-08-08 06:48:00,78.1,74.9,29.87,SE,136,1.0,4.0,90,0.00,,---,0.00,VWS V13.01,2013-08-08 11:48:00,
2013-08-08 06:52:00,78.0,74.8,29.87,NE,38,2.0,7.0,90,0.00,,---,0.00,VWS V13.01,2013-08-08 11:52:00,
2013-08-08 06:58:00,78.0,74.8,29.88,NE,40,7.0,7.0,90,0.00,,---,0.00,VWS V13.01,2013-08-08 11:58:00,
2013-08-08 07:03:00,78.0,74.8,29.88,NE,40,3.0,8.0,90,0.00,,---,0.00,VWS V13.01,2013-08-08 12:03:00,
2013-08-08 07:08:00,77.9,74.7,29.88,NE,38,3.0,9.0,90,0.00,,---,0.00,VWS V13.01,2013-08-08 12:08:00,
2013-08-08 07:13:00,77.9,74.7,29.89,NE,38,2.0,10.0,90,0.00,,---,0.00,VWS V13.01,2013-08-08 12:13:00,
2013-08-08 07:18:00,77.9,75.1,29.89,NNE,33,0.0,10.0,91,0.00,,---,0.00,VWS V13.01,2013-08-08 12:18:00,
2013-08-08 07:23:00,77.5,74.3,29.90,NE,42,2.0,10.0,90,0.00,,---,0.00,VWS V13.01,2013-08-08 12:23:00,
2013-08-08 07:28:00,76.9,73.1,29.90,North,360,4.0,15.0,88,0.00,,---,0.00,VWS V13.01,2013-08-08 12:28:00,
2013-08-08 07:33:00,76.4,72.2,29.91,NE,44,3.0,15.0,87,0.00,,---,0.00,VWS V13.01,2013-08-08 12:33:00,
2013-08-08 07:38:00,76.1,71.9,29.92,NNW,329,4.0,4.0,87,0.04,,---,0.04,VWS V13.01,2013-08-08 12:38:00,
2013-08-08 07:43:00,75.6,71.8,29.92,NE,36,3.0,13.0,88,0.21,,---,0.21,VWS V13.01,2013-08-08 12:43:00,
2013-08-08 07:48:00,75.3,71.5,29.93,NE,36,0.0,13.0,88,0.26,,---,0.26,VWS V13.01,2013-08-08 12:48:00,
2013-08-08 07:53:00,75.0,71.5,29.93,NE,36,3.0,13.0,89,0.26,,---,0.26,VWS V13.01,2013-08-08 12:53:00,
2013-08-08 07:58:00,74.7,71.2,29.94,NE,36,3.0,13.0,89,0.26,,---,0.26,VWS V13.01,2013-08-08 12:58:00,
2013-08-08 08:03:00,74.4,71.3,29.92,NE,36,6.0,13.0,90,0.26,,---,0.26,VWS V13.01,2013-08-08 13:03:00,
2013-08-08 08:08:00,74.2,71.1,29.92,NNE,33,6.0,12.0,90,0.26,,---,0.26,VWS V13.01,2013-08-08 13:08:00,
2013-08-08 08:13:00,73.9,71.1,29.92,NE,40,7.0,16.0,91,0.27,,---,0.27,VWS V13.01,2013-08-08 13:13:00,
2013-08-08 08:18:00,73.7,70.9,29.92,NE,53,6.0,16.0,91,0.27,,---,0.27,VWS V13.01,2013-08-08 13:18:00,
2013-08-08 08:23:00,73.6,70.8,29.92,NE,34,12.0,16.0,91,0.27,,---,0.27,VWS V13.01,2013-08-08 13:23:00,
2013-08-08 08:28:00,73.5,71.0,29.91,NE,42,4.0,16.0,92,0.27,,---,0.27,VWS V13.01,2013-08-08 13:28:00,
2013-08-08 08:33:00,73.3,70.8,29.91,NNE,33,3.0,16.0,92,0.27,,---,0.27,VWS V13.01,2013-08-08 13:33:00,
2013-08-08 08:38:00,73.3,70.8,29.91,NE,36,5.0,10.0,92,0.24,,---,0.27,VWS V13.01,2013-08-08 13:38:00,
2013-08-08 08:43:00,73.2,70.7,29.92,NE,39,3.0,14.0,92,0.24,,---,0.27,VWS V13.01,2013-08-08 13:43:00,
2013-08-08 08:48:00,73.2,70.7,29.91,NE,36,2.0,14.0,92,0.24,,---,0.27,VWS V13.01,2013-08-08 13:48:00,
2013-08-08 08:53:00,73.3,70.8,29.91,NE,36,2.0,14.0,92,0.24,,---,0.27,VWS V13.01,2013-08-08 13:53:00,
2013-08-08 08:58:00,73.3,70.8,29.92,NNE,26,3.0,14.0,92,0.24,,---,0.27,VWS V13.01,2013-08-08 13:58:00,
2013-08-08 09:03:00,73.5,71.4,29.91,NNE,26,0.0,14.0,93,0.24,,---,0.27,VWS V13.01,2013-08-08 14:03:00,
2013-08-08 09:08:00,73.5,71.4,29.91,NNE,32,0.0,1.0,93,0.01,,---,0.27,VWS V13.01,2013-08-08 14:08:00,
2013-08-08 09:13:00,73.5,71.0,29.91,NE,42,0.0,4.0,92,0.01,,---,0.27,VWS V13.01,2013-08-08 14:13:00,
2013-08-08 09:18:00,73.6,71.5,29.91,NNE,28,1.0,8.0,93,0.01,,---,0.27,VWS V13.01,2013-08-08 14:18:00,
2013-08-08 09:23:00,73.7,71.2,29.91,NE,45,3.0,11.0,92,0.01,,---,0.27,VWS V13.01,2013-08-08 14:23:00,
2013-08-08 09:28:00,73.7,71.2,29.90,NE,45,2.0,11.0,92,0.01,,---,0.27,VWS V13.01,2013-08-08 14:28:00,
2013-08-08 09:33:00,73.8,71.3,29.89,NE,40,4.0,11.0,92,0.01,,---,0.27,VWS V13.01,2013-08-08 14:33:00,
2013-08-08 09:38:00,74.0,71.5,29.89,NE,42,2.0,6.0,92,0.00,,---,0.27,VWS V13.01,2013-08-08 14:38:00,
2013-08-08 09:43:00,74.1,71.6,29.89,NE,44,1.0,6.0,92,0.00,,---,0.27,VWS V13.01,2013-08-08 14:43:00,
2013-08-08 09:48:00,74.3,72.2,29.89,NE,44,0.0,6.0,93,0.00,,---,0.27,VWS V13.01,2013-08-08 14:48:00,
2013-08-08 09:53:00,74.7,72.6,29.89,NE,44,0.0,6.0,93,0.00,,---,0.27,VWS V13.01,2013-08-08 14:53:00,
2013-08-08 09:58:00,75.1,72.9,29.89,NE,44,0.0,6.0,93,0.00,,---,0.27,VWS V13.01,2013-08-08 14:58:00,
2013-08-08 10:03:00,75.4,73.2,29.89,NE,44,0.0,6.0,93,0.00,,---,0.27,VWS V13.01,2013-08-08 15:03:00,
2013-08-08 10:08:00,75.8,73.6,29.88,NE,44,0.0,4.0,93,0.00,,---,0.27,VWS V13.01,2013-08-08 15:08:00,
2013-08-08 10:13:00,76.0,73.8,29.89,NE,44,0.0,4.0,93,0.00,,---,0.27,VWS V13.01,2013-08-08 15:13:00,
2013-08-08 10:18:00,76.2,73.7,29.89,NE,44,0.0,4.0,92,0.00,,---,0.27,VWS V13.01,2013-08-08 15:18:00,
2013-08-08 10:23:00,76.4,73.9,29.89,NE,44,0.0,4.0,92,0.00,,---,0.27,VWS V13.01,2013-08-08 15:23:00,
2013-08-08 10:28:00,76.8,74.3,29.89,NE,44,0.0,4.0,92,0.00,,---,0.27,VWS V13.01,2013-08-08 15:28:00,
2013-08-08 10:33:00,77.0,74.2,29.89,NE,44,0.0,4.0,91,0.00,,---,0.27,VWS V13.01,2013-08-08 15:33:00,
2013-08-08 10:38:00,77.6,74.4,29.88,NE,44,0.0,0.0,90,0.00,,---,0.27,VWS V13.01,2013-08-08 15:38:00,
2013-08-08 10:43:00,78.0,74.5,29.88,NE,44,0.0,0.0,89,0.00,,---,0.27,VWS V13.01,2013-08-08 15:43:00,
2013-08-08 10:48:00,78.7,74.5,29.88,NE,44,0.0,0.0,87,0.00,,---,0.27,VWS V13.01,2013-08-08 15:48:00,
2013-08-08 10:53:00,79.3,75.1,29.88,NE,44,0.0,0.0,87,0.00,,---,0.27,VWS V13.01,2013-08-08 15:53:00,
2013-08-08 10:58:00,79.8,75.6,29.88,NE,44,0.0,0.0,87,0.00,,---,0.27,VWS V13.01,2013-08-08 15:58:00,
2013-08-08 11:03:00,80.5,76.3,29.88,NE,44,0.0,4.0,87,0.00,,---,0.27,VWS V13.01,2013-08-08 16:03:00,
2013-08-08 11:08:00,81.0,76.1,29.89,NE,44,0.0,1.0,85,0.00,,---,0.27,VWS V13.01,2013-08-08 16:08:00,
2013-08-08 11:13:00,81.0,75.3,29.88,NE,44,0.0,3.0,83,0.00,,---,0.27,VWS V13.01,2013-08-08 16:13:00,
2013-08-08 11:18:00,81.2,75.6,29.88,NE,44,2.0,4.0,83,0.00,,---,0.27,VWS V13.01,2013-08-08 16:18:00,
2013-08-08 11:23:00,81.4,75.7,29.88,NE,44,0.0,4.0,83,0.00,,---,0.27,VWS V13.01,2013-08-08 16:23:00,
2013-08-08 11:28:00,81.8,75.8,29.88,NE,44,0.0,5.0,82,0.00,,---,0.27,VWS V13.01,2013-08-08 16:28:00,
2013-08-08 11:33:00,82.1,76.1,29.89,NE,44,0.0,5.0,82,0.00,,---,0.27,VWS V13.01,2013-08-08 16:33:00,
2013-08-08 11:38:00,82.6,76.6,29.88,NE,44,0.0,2.0,82,0.00,,---,0.27,VWS V13.01,2013-08-08 16:38:00,
2013-08-08 11:43:00,83.0,76.2,29.89,NE,44,0.0,2.0,80,0.00,,---,0.27,VWS V13.01,2013-08-08 16:43:00,
2013-08-08 11:48:00,83.5,77.1,29.89,NE,44,0.0,3.0,81,0.00,,---,0.27,VWS V13.01,2013-08-08 16:48:00,
2013-08-08 11:53:00,84.3,76.7,29.89,NE,34,0.0,5.0,78,0.00,,---,0.27,VWS V13.01,2013-08-08 16:53:00,
2013-08-08 11:58:00,84.5,76.5,29.88,NNE,33,0.0,5.0,77,0.00,,---,0.27,VWS V13.01,2013-08-08 16:58:00,
2013-08-08 12:03:00,85.0,75.4,29.88,SW,227,0.0,5.0,73,0.00,,---,0.27,VWS V13.01,2013-08-08 17:03:00,
2013-08-08 12:09:00,85.5,76.7,29.88,NNW,327,0.0,0.0,75,0.00,,---,0.27,VWS V13.01,2013-08-08 17:09:00,
2013-08-08 12:14:00,85.7,76.1,29.88,NW,321,0.0,4.0,73,0.00,,---,0.27,VWS V13.01,2013-08-08 17:14:00,
2013-08-08 12:19:00,86.3,77.0,29.87,West,264,0.0,4.0,74,0.00,,---,0.27,VWS V13.01,2013-08-08 17:19:00,
2013-08-08 12:24:00,86.6,76.1,29.87,West,266,2.0,4.0,71,0.00,,---,0.27,VWS V13.01,2013-08-08 17:24:00,
2013-08-08 12:29:00,86.8,75.8,29.87,West,275,1.0,4.0,70,0.00,,---,0.27,VWS V13.01,2013-08-08 17:29:00,
2013-08-08 12:34:00,87.0,76.0,29.87,WSW,247,2.0,5.0,70,0.00,,---,0.27,VWS V13.01,2013-08-08 17:34:00,
2013-08-08 12:39:00,87.5,76.9,29.86,ENE,75,3.0,4.0,71,0.00,,---,0.27,VWS V13.01,2013-08-08 17:39:00,
2013-08-08 12:44:00,87.8,76.4,29.86,SW,227,6.0,7.0,69,0.00,,---,0.27,VWS V13.01,2013-08-08 17:44:00,
2013-08-08 12:49:00,87.7,76.7,29.85,South,182,7.0,7.0,70,0.00,,---,0.27,VWS V13.01,2013-08-08 17:49:00,
2013-08-08 12:54:00,87.7,77.1,29.85,South,171,3.0,7.0,71,0.00,,---,0.27,VWS V13.01,2013-08-08 17:54:00,
2013-08-08 12:59:00,89.4,77.4,29.85,South,180,2.0,7.0,68,0.00,,---,0.27,VWS V13.01,2013-08-08 17:59:00,
2013-08-08 13:05:00,89.7,75.9,29.85,SSE,159,3.0,7.0,64,0.00,,---,0.27,VWS V13.01,2013-08-08 18:05:00,
2013-08-08 13:10:00,89.8,76.0,29.85,SSE,161,3.0,6.0,64,0.00,,---,0.27,VWS V13.01,2013-08-08 18:10:00,
2013-08-08 13:15:00,90.4,77.9,29.85,SSW,210,4.0,7.0,67,0.00,,---,0.27,VWS V13.01,2013-08-08 18:15:00,
2013-08-08 13:20:00,90.4,76.1,29.85,SSW,198,4.0,9.0,63,0.00,,---,0.27,VWS V13.01,2013-08-08 18:20:00,
2013-08-08 13:25:00,90.6,74.3,29.85,SSW,195,7.0,11.0,59,0.00,,---,0.27,VWS V13.01,2013-08-08 18:25:00,
2013-08-08 13:30:00,90.9,76.6,29.85,South,189,0.0,11.0,63,0.00,,---,0.27,VWS V13.01,2013-08-08 18:30:00,
2013-08-08 13:35:00,90.6,77.2,29.85,SSE,164,0.0,11.0,65,0.00,,---,0.27,VWS V13.01,2013-08-08 18:35:00,
2013-08-08 13:40:00,91.1,77.7,29.85,South,179,0.0,6.0,65,0.00,,---,0.27,VWS V13.01,2013-08-08 18:40:00,
2013-08-08 13:45:00,91.5,76.2,29.84,South,173,7.0,9.0,61,0.00,,---,0.27,VWS V13.01,2013-08-08 18:45:00,
2013-08-08 13:50:00,91.1,75.8,29.84,South,181,3.0,11.0,61,0.00,,---,0.27,VWS V13.01,2013-08-08 18:50:00,
2013-08-08 13:55:00,90.2,74.4,29.84,South,184,5.0,11.0,60,0.00,,---,0.27,VWS V13.01,2013-08-08 18:55:00,
2013-08-08 14:00:00,90.1,75.3,29.84,SSW,204,4.0,11.0,62,0.00,,---,0.27,VWS V13.01,2013-08-08 19:00:00,
2013-08-08 14:05:00,90.7,75.4,29.84,South,184,0.0,11.0,61,0.00,,---,0.27,VWS V13.01,2013-08-08 19:05:00,
2013-08-08 14:10:00,90.8,76.0,29.84,South,174,3.0,9.0,62,0.00,,---,0.27,VWS V13.01,2013-08-08 19:10:00,
2013-08-08 14:15:00,91.1,76.3,29.84,ESE,117,3.0,9.0,62,0.00,,---,0.27,VWS V13.01,2013-08-08 19:15:00,
2013-08-08 14:21:00,91.3,76.5,29.84,SSE,163,4.0,10.0,62,0.00,,---,0.27,VWS V13.01,2013-08-08 19:21:00,
2013-08-08 14:26:00,91.3,76.5,29.84,SSW,210,3.0,11.0,62,0.00,,---,0.27,VWS V13.01,2013-08-08 19:26:00,
2013-08-08 14:31:00,92.7,76.8,29.84,SSW,196,0.0,11.0,60,0.00,,---,0.27,VWS V13.01,2013-08-08 19:31:00,
2013-08-08 14:36:00,92.7,77.3,29.84,SW,233,3.0,11.0,61,0.00,,---,0.27,VWS V13.01,2013-08-08 19:36:00,
2013-08-08 14:41:00,93.1,76.1,29.84,SSW,207,1.0,10.0,58,0.00,,---,0.27,VWS V13.01,2013-08-08 19:41:00,
2013-08-08 14:46:00,93.2,76.8,29.84,SW,214,2.0,10.0,59,0.00,,---,0.27,VWS V13.01,2013-08-08 19:46:00,
2013-08-08 14:51:00,92.9,75.4,29.84,SW,227,0.0,10.0,57,0.00,,---,0.27,VWS V13.01,2013-08-08 19:51:00,
2013-08-08 14:56:00,92.7,78.7,29.84,SSW,194,0.0,10.0,64,0.00,,---,0.27,VWS V13.01,2013-08-08 19:56:00,
2013-08-08 15:01:00,93.7,77.2,29.84,SSE,165,0.0,10.0,59,0.00,,---,0.27,VWS V13.01,2013-08-08 20:01:00,
2013-08-08 15:06:00,93.7,78.7,29.84,South,178,0.0,10.0,62,0.00,,---,0.27,VWS V13.01,2013-08-08 20:06:00,
2013-08-08 15:11:00,93.6,78.1,29.83,ESE,121,0.0,4.0,61,0.00,,---,0.27,VWS V13.01,2013-08-08 20:11:00,
2013-08-08 15:16:00,93.7,78.7,29.83,ESE,121,0.0,4.0,62,0.00,,---,0.27,VWS V13.01,2013-08-08 20:16:00,
2013-08-08 15:22:00,94.0,78.0,29.83,ESE,121,0.0,4.0,60,0.00,,---,0.27,VWS V13.01,2013-08-08 20:22:00,
2013-08-08 15:27:00,94.0,77.0,29.83,ESE,103,0.0,4.0,58,0.00,,---,0.27,VWS V13.01,2013-08-08 20:27:00,
2013-08-08 15:32:00,94.0,77.5,29.83,ESE,105,1.0,4.0,59,0.00,,---,0.27,VWS V13.01,2013-08-08 20:32:00,
2013-08-08 15:37:00,93.9,78.9,29.83,South,183,0.0,0.0,62,0.00,,---,0.27,VWS V13.01,2013-08-08 20:37:00,
2013-08-08 15:42:00,93.9,77.9,29.82,SSW,192,0.0,7.0,60,0.00,,---,0.27,VWS V13.01,2013-08-08 20:42:00,
2013-08-08 15:47:00,94.2,77.2,29.82,South,186,0.0,7.0,58,0.00,,---,0.27,VWS V13.01,2013-08-08 20:47:00,
2013-08-08 15:52:00,93.5,77.0,29.82,SSW,209,0.0,7.0,59,0.00,,---,0.27,VWS V13.01,2013-08-08 20:52:00,
2013-08-08 15:57:00,93.6,78.1,29.82,SSW,208,0.0,7.0,61,0.00,,---,0.27,VWS V13.01,2013-08-08 20:57:00,
2013-08-08 16:02:00,93.7,78.2,29.82,SSW,205,0.0,7.0,61,0.00,,---,0.27,VWS V13.01,2013-08-08 21:02:00,
2013-08-08 16:07:00,93.8,78.3,29.82,South,188,1.0,4.0,61,0.00,,---,0.27,VWS V13.01,2013-08-08 21:07:00,
2013-08-08 16:12:00,93.3,77.8,29.81,SW,225,0.0,6.0,61,0.00,,---,0.27,VWS V13.01,2013-08-08 21:12:00,
2013-08-08 16:20:00,93.4,77.9,29.82,SSW,196,1.0,6.0,61,0.00,,---,0.27,VWS V13.01,2013-08-08 21:20:00,
2013-08-08 16:26:00,94.3,78.3,29.82,SSW,195,0.0,6.0,60,0.00,,---,0.27,VWS V13.01,2013-08-08 21:26:00,
2013-08-08 16:32:00,94.1,78.6,29.82,SE,137,3.0,6.0,61,0.00,,---,0.27,VWS V13.01,2013-08-08 21:32:00,
2013-08-08 16:37:00,94.1,77.6,29.82,South,181,0.0,7.0,59,0.00,,---,0.27,VWS V13.01,2013-08-08 21:37:00,
2013-08-08 16:42:00,94.1,77.6,29.82,South,177,0.0,3.0,59,0.00,,---,0.27,VWS V13.01,2013-08-08 21:42:00,
2013-08-08 16:47:00,93.9,77.9,29.82,South,188,0.0,4.0,60,0.00,,---,0.27,VWS V13.01,2013-08-08 21:47:00,
2013-08-08 16:53:00,94.2,78.2,29.82,SSW,202,0.0,6.0,60,0.00,,---,0.27,VWS V13.01,2013-08-08 21:53:00,
2013-08-08 16:58:00,94.3,78.3,29.82,South,187,0.0,6.0,60,0.00,,---,0.27,VWS V13.01,2013-08-08 21:58:00,
2013-08-08 17:04:00,93.8,78.8,29.82,South,188,0.0,6.0,62,0.00,,---,0.27,VWS V13.01,2013-08-08 22:04:00,
2013-08-08 17:09:00,93.7,78.7,29.81,SSE,150,0.0,6.0,62,0.00,,---,0.27,VWS V13.01,2013-08-08 22:09:00,
2013-08-08 17:14:00,94.1,78.1,29.82,South,188,3.0,7.0,60,0.00,,---,0.27,VWS V13.01,2013-08-08 22:14:00,
2013-08-08 17:19:00,94.3,77.8,29.81,South,189,0.0,7.0,59,0.00,,---,0.27,VWS V13.01,2013-08-08 22:19:00,
2013-08-08 17:24:00,94.0,77.0,29.81,South,189,0.0,7.0,58,0.00,,---,0.27,VWS V13.01,2013-08-08 22:24:00,
2013-08-08 17:29:00,93.7,77.2,29.81,South,191,0.0,7.0,59,0.00,,---,0.27,VWS V13.01,2013-08-08 22:29:00,
2013-08-08 17:35:00,93.4,76.9,29.81,SSW,196,0.0,7.0,59,0.00,,---,0.27,VWS V13.01,2013-08-08 22:35:00,
2013-08-08 17:41:00,93.1,77.7,29.81,SSW,196,0.0,0.0,61,0.00,,---,0.27,VWS V13.01,2013-08-08 22:41:00,
2013-08-08 17:46:00,93.2,76.8,29.81,SSW,196,0.0,6.0,59,0.00,,---,0.27,VWS V13.01,2013-08-08 22:46:00,
2013-08-08 17:51:00,93.3,77.8,29.81,SSW,196,0.0,6.0,61,0.00,,---,0.27,VWS V13.01,2013-08-08 22:51:00,
2013-08-08 17:56:00,93.3,77.8,29.81,SSW,196,0.0,6.0,61,0.00,,---,0.27,VWS V13.01,2013-08-08 22:56:00,
2013-08-08 18:02:00,93.0,77.1,29.81,SSW,197,0.0,6.0,60,0.00,,---,0.27,VWS V13.01,2013-08-08 23:02:00,
2013-08-08 18:26:00,92.8,76.9,29.80,SSW,196,0.0,3.0,60,0.00,,---,0.27,VWS V13.01,2013-08-08 23:26:00,
2013-08-08 18:32:00,92.8,76.4,29.80,SSW,196,0.0,4.0,59,0.00,,---,0.27,VWS V13.01,2013-08-08 23:32:00,
2013-08-08 18:37:00,92.8,76.4,29.80,SSW,196,0.0,4.0,59,0.00,,---,0.27,VWS V13.01,2013-08-08 23:37:00,
2013-08-08 18:42:00,92.8,76.9,29.79,SSW,196,0.0,1.0,60,0.00,,---,0.27,VWS V13.01,2013-08-08 23:42:00,
2013-08-08 18:48:00,92.6,77.2,29.79,SSW,196,0.0,1.0,61,0.00,,---,0.27,VWS V13.01,2013-08-08 23:48:00,
2013-08-08 18:53:00,92.4,77.0,29.80,SSW,196,0.0,2.0,61,0.00,,---,0.27,VWS V13.01,2013-08-08 23:53:00,
2013-08-08 18:58:00,92.1,76.7,29.80,SSW,196,0.0,4.0,61,0.00,,---,0.27,VWS V13.01,2013-08-08 23:58:00,
2013-08-08 19:03:00,91.8,76.9,29.80,SSW,196,0.0,4.0,62,0.00,,---,0.27,VWS V13.01,2013-08-09 00:03:00,
2013-08-08 19:08:00,91.5,76.7,29.80,SSW,196,0.0,0.0,62,0.00,,---,0.27,VWS V13.01,2013-08-09 00:08:00,
2013-08-08 19:13:00,91.2,76.4,29.80,SSW,196,0.0,1.0,62,0.00,,---,0.27,VWS V13.01,2013-08-09 00:13:00,
2013-08-08 19:18:00,90.9,76.6,29.80,SSW,196,0.0,1.0,63,0.00,,---,0.27,VWS V13.01,2013-08-09 00:18:00,
2013-08-08 19:24:00,90.6,76.8,29.80,SSW,196,0.0,1.0,64,0.00,,---,0.27,VWS V13.01,2013-08-09 00:24:00,
2013-08-08 19:29:00,90.4,76.6,29.80,SSW,196,0.0,1.0,64,0.00,,---,0.27,VWS V13.01,2013-08-09 00:29:00,
2013-08-08 19:34:00,90.1,76.3,29.80,SSW,196,0.0,1.0,64,0.00,,---,0.27,VWS V13.01,2013-08-09 00:34:00,
2013-08-08 19:39:00,89.9,76.1,29.81,SSW,196,0.0,3.0,64,0.00,,---,0.27,VWS V13.01,2013-08-09 00:39:00,
2013-08-08 19:44:00,89.6,75.8,29.82,SSW,196,0.0,3.0,64,0.00,,---,0.27,VWS V13.01,2013-08-09 00:44:00,
2013-08-08 19:49:00,89.3,75.5,29.81,SSW,196,0.0,3.0,64,0.00,,---,0.27,VWS V13.01,2013-08-09 00:49:00,
2013-08-08 19:55:00,89.1,75.8,29.81,SSW,196,0.0,3.0,65,0.00,,---,0.27,VWS V13.01,2013-08-09 00:55:00,
2013-08-08 20:00:00,88.8,75.5,29.81,SSW,196,0.0,5.0,65,0.00,,---,0.27,VWS V13.01,2013-08-09 01:00:00,
2013-08-08 20:05:00,88.6,75.3,29.82,SSW,196,0.0,5.0,65,0.00,,---,0.27,VWS V13.01,2013-08-09 01:05:00,
2013-08-08 20:10:00,88.4,75.6,29.84,NW,325,4.0,18.0,66,0.00,,---,0.27,VWS V13.01,2013-08-09 01:10:00,
2013-08-08 20:15:00,87.1,72.0,29.85,WNW,291,1.0,18.0,61,0.00,,---,0.27,VWS V13.01,2013-08-09 01:15:00,
2013-08-08 20:20:00,85.4,70.9,29.86,WSW,254,0.0,18.0,62,0.00,,---,0.27,VWS V13.01,2013-08-09 01:20:00,
2013-08-08 20:26:00,83.8,69.9,29.86,NNW,327,2.0,18.0,63,0.00,,---,0.27,VWS V13.01,2013-08-09 01:26:00,
2013-08-08 20:31:00,82.7,70.2,29.87,NNW,330,3.0,18.0,66,0.00,,---,0.27,VWS V13.01,2013-08-09 01:31:00,
2013-08-08 20:37:00,81.9,70.3,29.87,NNW,345,0.0,18.0,68,0.00,,---,0.27,VWS V13.01,2013-08-09 01:37:00,
2013-08-08 20:42:00,81.1,70.0,29.88,WNW,294,6.0,13.0,69,0.00,,---,0.27,VWS V13.01,2013-08-09 01:42:00,
2013-08-08 20:47:00,80.4,69.7,29.89,NNW,348,0.0,13.0,70,0.00,,---,0.27,VWS V13.01,2013-08-09 01:47:00,
2013-08-08 20:52:00,79.7,69.9,29.90,NNW,338,4.0,13.0,72,0.00,,---,0.27,VWS V13.01,2013-08-09 01:52:00,
2013-08-08 20:57:00,79.0,69.6,29.90,WNW,290,0.0,13.0,73,0.00,,---,0.27,VWS V13.01,2013-08-09 01:57:00,
2013-08-08 21:02:00,78.7,69.7,29.90,NW,304,0.0,13.0,74,0.00,,---,0.27,VWS V13.01,2013-08-09 02:02:00,
2013-08-08 21:07:00,78.3,70.1,29.90,North,9,0.0,0.0,76,0.00,,---,0.27,VWS V13.01,2013-08-09 02:07:00,
2013-08-08 21:12:00,78.1,70.3,29.90,North,9,0.0,1.0,77,0.00,,---,0.27,VWS V13.01,2013-08-09 02:12:00,
2013-08-08 21:17:00,77.9,70.5,29.90,North,9,0.0,1.0,78,0.00,,---,0.27,VWS V13.01,2013-08-09 02:17:00,
2013-08-08 21:23:00,77.8,70.8,29.90,North,9,0.0,1.0,79,0.00,,---,0.27,VWS V13.01,2013-08-09 02:23:00,
2013-08-08 21:29:00,77.6,70.9,29.91,North,9,0.0,1.0,80,0.00,,---,0.27,VWS V13.01,2013-08-09 02:29:00,
2013-08-08 21:34:00,77.6,71.3,29.91,North,9,0.0,1.0,81,0.00,,---,0.27,VWS V13.01,2013-08-09 02:34:00,
2013-08-08 21:39:00,77.5,71.6,29.91,NNE,28,0.0,7.0,82,0.00,,---,0.27,VWS V13.01,2013-08-09 02:39:00,
2013-08-08 21:44:00,77.5,71.6,29.91,NNE,24,3.0,9.0,82,0.00,,---,0.27,VWS V13.01,2013-08-09 02:44:00,
2013-08-08 21:50:00,77.5,71.9,29.92,NE,34,0.0,9.0,83,0.00,,---,0.27,VWS V13.01,2013-08-09 02:50:00,
2013-08-08 21:55:00,77.4,71.8,29.92,NE,48,3.0,9.0,83,0.00,,---,0.27,VWS V13.01,2013-08-09 02:55:00,
2013-08-08 22:00:00,77.3,71.7,29.92,NE,46,0.0,9.0,83,0.00,,---,0.27,VWS V13.01,2013-08-09 03:00:00,
2013-08-08 22:05:00,77.2,71.6,29.92,NE,42,5.0,9.0,83,0.00,,---,0.27,VWS V13.01,2013-08-09 03:05:00,
2013-08-08 22:10:00,77.1,71.5,29.91,NE,41,9.0,9.0,83,0.00,,---,0.27,VWS V13.01,2013-08-09 03:10:00,
2013-08-08 22:15:00,76.9,71.3,29.91,NE,38,4.0,9.0,83,0.00,,---,0.27,VWS V13.01,2013-08-09 03:15:00,
2013-08-08 22:21:00,76.9,71.3,29.91,NE,38,0.0,9.0,83,0.00,,---,0.27,VWS V13.01,2013-08-09 03:21:00,
2013-08-08 22:26:00,76.8,71.2,29.91,NE,46,1.0,9.0,83,0.00,,---,0.27,VWS V13.01,2013-08-09 03:26:00,
2013-08-08 22:32:00,76.7,71.2,29.90,ENE,64,5.0,9.0,83,0.00,,---,0.27,VWS V13.01,2013-08-09 03:32:00,
2013-08-08 22:37:00,76.6,71.1,29.90,NE,49,8.0,9.0,83,0.00,,---,0.27,VWS V13.01,2013-08-09 03:37:00,
2013-08-08 22:42:00,76.5,71.0,29.90,ENE,65,0.0,9.0,83,0.00,,---,0.27,VWS V13.01,2013-08-09 03:42:00,
2013-08-08 22:47:00,76.5,71.3,29.91,ENE,63,4.0,9.0,84,0.00,,---,0.27,VWS V13.01,2013-08-09 03:47:00,
2013-08-08 22:52:00,76.4,71.2,29.91,ENE,65,0.0,9.0,84,0.00,,---,0.27,VWS V13.01,2013-08-09 03:52:00,
2013-08-08 22:59:00,76.3,71.1,29.93,ENE,59,0.0,9.0,84,0.00,,---,0.27,VWS V13.01,2013-08-09 03:59:00,
2013-08-08 23:01:00,76.3,71.1,29.93,ENE,59,0.0,9.0,84,0.00,,---,0.27,VWS V13.01,2013-08-09 04:01:00,
2013-08-08 23:02:00,76.2,71.0,29.93,ENE,59,0.0,9.0,84,0.00,,---,0.27,VWS V13.01,2013-08-09 04:02:00,
2013-08-08 23:07:00,76.1,70.9,29.93,ENE,59,0.0,0.0,84,0.00,,---,0.27,VWS V13.01,2013-08-09 04:07:00,
2013-08-08 23:12:00,76.0,71.2,29.93,ENE,59,0.0,0.0,85,0.00,,---,0.27,VWS V13.01,2013-08-09 04:12:00,
2013-08-08 23:17:00,75.9,71.1,29.92,ENE,59,0.0,0.0,85,0.00,,---,0.27,VWS V13.01,2013-08-09 04:17:00,
2013-08-08 23:22:00,75.9,71.1,29.92,ENE,59,0.0,0.0,85,0.00,,---,0.27,VWS V13.01,2013-08-09 04:22:00,
2013-08-08 23:27:00,75.9,71.1,29.92,ENE,59,0.0,0.0,85,0.01,,---,0.28,VWS V13.01,2013-08-09 04:27:00,
2013-08-08 23:32:00,75.9,71.4,29.93,ENE,59,0.0,0.0,86,0.01,,---,0.28,VWS V13.01,2013-08-09 04:32:00,
2013-08-08 23:37:00,75.9,71.8,29.93,ENE,59,0.0,0.0,87,0.01,,---,0.28,VWS V13.01,2013-08-09 04:37:00,
2013-08-08 23:42:00,75.8,71.7,29.94,ENE,59,0.0,0.0,87,0.01,,---,0.28,VWS V13.01,2013-08-09 04:42:00,
2013-08-08 23:47:00,75.8,71.7,29.93,ENE,59,0.0,0.0,87,0.01,,---,0.28,VWS V13.01,2013-08-09 04:47:00,
2013-08-08 23:52:00,75.7,71.9,29.93,ENE,59,0.0,0.0,88,0.01,,---,0.28,VWS V13.01,2013-08-09 04:52:00,
2013-08-08 23:57:00,75.7,71.9,29.93,ENE,59,0.0,0.0,88,0.01,,---,0.28,VWS V13.01,2013-08-09 04:57:00,